contact:dominique.lefevre@mio.osupytheas.fr, maurice.libes@osupytheas.fr, didier.mallarino@osupytheas.fr
Project:EMSO http://www.emso-fr.org/EMSO-France
Depth: 2436.0 m
Title:EMSO Ligure Ouest : Data MII capteur CSTAR
DateTime,Latitude,Longitude,Instrument_Serial,Reference_Counts,Signal_Counts,Corrected_Signal_raw_counts,Calculated_Beam_c_inverse_meters,Internal_thermistor_counts
DateTime,Latitude,Longitude,Instrument_Serial,Reference_Counts,Signal_Counts,Corrected_Signal_raw_counts,Calculated_Beam_c_inverse_meters,Internal_thermistor_counts
2019-07-12T07:40:06,42.805,6.029,CST-1368DR,8691,12154,15470,0.038,551
2019-07-12T07:43:08,42.805,6.029,CST-1368DR,8691,12151,15467,0.038,551
2019-07-12T07:46:10,42.805,6.029,CST-1368DR,8691,12157,15475,0.036,551
2019-07-12T07:49:11,42.805,6.029,CST-1368DR,8691,12154,15471,0.037,551
2019-07-12T07:52:13,42.805,6.029,CST-1368DR,8691,12156,15473,0.037,551
2019-07-12T07:55:15,42.805,6.029,CST-1368DR,8691,12156,15473,0.037,551
2019-07-12T07:58:16,42.805,6.029,CST-1368DR,8691,12153,15470,0.038,550
2019-07-12T08:01:18,42.805,6.029,CST-1368DR,8691,12158,15475,0.036,551
2019-07-12T08:04:20,42.805,6.029,CST-1368DR,8691,12152,15468,0.038,551
2019-07-12T08:07:21,42.805,6.029,CST-1368DR,8691,12156,15473,0.037,551
2019-07-12T08:10:23,42.805,6.029,CST-1368DR,8691,12153,15470,0.038,550
2019-07-12T08:13:24,42.805,6.029,CST-1368DR,8691,12155,15471,0.037,550
2019-07-12T08:16:26,42.805,6.029,CST-1368DR,8691,12154,15471,0.037,551
2019-07-12T08:19:28,42.805,6.029,CST-1368DR,8691,12155,15472,0.037,551
2019-07-12T08:22:29,42.805,6.029,CST-1368DR,8691,12153,15470,0.038,551
2019-07-12T08:25:31,42.805,6.029,CST-1368DR,8691,12155,15472,0.037,551
2019-07-12T08:28:33,42.805,6.029,CST-1368DR,8691,12156,15473,0.037,551
2019-07-12T08:31:34,42.805,6.029,CST-1368DR,8691,12154,15470,0.038,551
2019-07-12T08:34:36,42.805,6.029,CST-1368DR,8691,12155,15472,0.037,551
2019-07-12T08:37:37,42.805,6.029,CST-1368DR,8691,12157,15474,0.037,550
2019-07-12T08:40:39,42.805,6.029,CST-1368DR,8691,12153,15470,0.038,551
2019-07-12T08:43:41,42.805,6.029,CST-1368DR,8691,12153,15470,0.038,551
2019-07-12T08:46:42,42.805,6.029,CST-1368DR,8690,12154,15473,0.037,551
2019-07-12T08:49:44,42.805,6.029,CST-1368DR,8690,12154,15473,0.037,551
2019-07-12T08:52:46,42.805,6.029,CST-1368DR,8690,12155,15474,0.037,551
2019-07-12T08:55:47,42.805,6.029,CST-1368DR,8690,12154,15473,0.037,551
2019-07-12T08:58:49,42.805,6.029,CST-1368DR,8690,12154,15472,0.037,551
2019-07-12T09:01:50,42.805,6.029,CST-1368DR,8690,12155,15474,0.037,551
2019-07-12T09:04:52,42.805,6.029,CST-1368DR,8690,12156,15475,0.036,551
2019-07-12T09:07:54,42.805,6.029,CST-1368DR,8690,12145,15460,0.040,551
2019-07-12T09:10:56,42.805,6.029,CST-1368DR,8690,12156,15475,0.036,551
2019-07-12T09:13:57,42.805,6.029,CST-1368DR,8690,12155,15474,0.037,551
2019-07-12T09:16:59,42.805,6.029,CST-1368DR,8690,12156,15474,0.037,551
2019-07-12T09:20:01,42.805,6.029,CST-1368DR,8690,12156,15475,0.036,551
2019-07-12T09:23:02,42.805,6.029,CST-1368DR,8690,12156,15475,0.036,551
2019-07-12T09:26:04,42.805,6.029,CST-1368DR,8690,12151,15468,0.038,551
2019-07-12T09:29:05,42.805,6.029,CST-1368DR,8690,12156,15474,0.037,551
2019-07-12T09:32:07,42.805,6.029,CST-1368DR,8690,12155,15473,0.037,551
2019-07-12T09:35:09,42.805,6.029,CST-1368DR,8690,12154,15472,0.037,551
2019-07-12T09:38:10,42.805,6.029,CST-1368DR,8690,12152,15470,0.038,551
2019-07-12T09:41:12,42.805,6.029,CST-1368DR,8690,12154,15473,0.037,551
2019-07-12T09:44:14,42.805,6.029,CST-1368DR,8690,12155,15473,0.037,551
2019-07-12T09:47:16,42.805,6.029,CST-1368DR,8690,12156,15474,0.037,551
2019-07-12T09:50:17,42.805,6.029,CST-1368DR,8690,12155,15474,0.037,551
2019-07-12T09:53:19,42.805,6.029,CST-1368DR,8690,12155,15474,0.037,551
2019-07-12T09:56:21,42.805,6.029,CST-1368DR,8690,12156,15475,0.036,551
2019-07-12T09:59:22,42.805,6.029,CST-1368DR,8690,12152,15469,0.038,551
2019-07-12T10:02:24,42.805,6.029,CST-1368DR,8690,12154,15472,0.037,551
2019-07-12T10:05:26,42.805,6.029,CST-1368DR,8689,12152,15472,0.037,550
2019-07-12T10:08:27,42.805,6.029,CST-1368DR,8690,12154,15472,0.037,550
2019-07-12T10:11:29,42.805,6.029,CST-1368DR,8690,12155,15474,0.037,550
2019-07-12T10:14:31,42.805,6.029,CST-1368DR,8689,12154,15474,0.037,551
2019-07-12T10:17:32,42.805,6.029,CST-1368DR,8689,12154,15474,0.037,551
2019-07-12T10:20:34,42.805,6.029,CST-1368DR,8689,12155,15475,0.036,551
2019-07-12T10:23:35,42.805,6.029,CST-1368DR,8689,12154,15473,0.037,551
2019-07-12T10:26:37,42.805,6.029,CST-1368DR,8689,12155,15475,0.036,551
2019-07-12T10:29:39,42.805,6.029,CST-1368DR,8689,12154,15474,0.037,551
2019-07-12T10:32:40,42.805,6.029,CST-1368DR,8689,12154,15474,0.037,551
2019-07-12T10:35:42,42.805,6.029,CST-1368DR,8689,12154,15474,0.037,550
2019-07-12T10:38:44,42.805,6.029,CST-1368DR,8689,12154,15474,0.037,551
2019-07-12T10:41:45,42.805,6.029,CST-1368DR,8689,12152,15471,0.037,551
2019-07-12T10:44:47,42.805,6.029,CST-1368DR,8689,12154,15474,0.037,551
2019-07-12T10:47:48,42.805,6.029,CST-1368DR,8689,12154,15474,0.037,551
2019-07-12T10:50:50,42.805,6.029,CST-1368DR,8689,12155,15475,0.036,551
2019-07-12T10:53:52,42.805,6.029,CST-1368DR,8689,12153,15473,0.037,551
2019-07-12T10:56:53,42.805,6.029,CST-1368DR,8689,12154,15474,0.037,551
2019-07-12T10:59:55,42.805,6.029,CST-1368DR,8689,12153,15473,0.037,551
2019-07-12T11:02:57,42.805,6.029,CST-1368DR,8689,12153,15472,0.037,551
2019-07-12T11:05:58,42.805,6.029,CST-1368DR,8689,12153,15473,0.037,551
2019-07-12T11:09:00,42.805,6.029,CST-1368DR,8689,12155,15475,0.036,551
2019-07-12T11:12:02,42.805,6.029,CST-1368DR,8689,12152,15472,0.037,551
2019-07-12T11:15:03,42.805,6.029,CST-1368DR,8689,12154,15474,0.037,550
2019-07-12T11:18:05,42.805,6.029,CST-1368DR,8689,12152,15472,0.037,551
2019-07-12T11:21:07,42.805,6.029,CST-1368DR,8689,12151,15470,0.038,551
2019-07-12T11:24:08,42.805,6.029,CST-1368DR,8689,12145,15462,0.040,551
2019-07-12T11:27:10,42.805,6.029,CST-1368DR,8689,12153,15473,0.037,551
2019-07-12T11:30:11,42.805,6.029,CST-1368DR,8689,12153,15473,0.037,551
2019-07-12T11:33:13,42.805,6.029,CST-1368DR,8689,12155,15475,0.036,551
2019-07-12T11:36:15,42.805,6.029,CST-1368DR,8689,12146,15463,0.039,551
2019-07-12T11:39:16,42.805,6.029,CST-1368DR,8689,12156,15476,0.036,551
2019-07-12T11:42:18,42.805,6.029,CST-1368DR,8689,12155,15475,0.036,551
2019-07-12T11:45:20,42.805,6.029,CST-1368DR,8689,12155,15475,0.036,551
2019-07-12T11:48:22,42.805,6.029,CST-1368DR,8688,12155,15477,0.036,551
2019-07-12T11:51:23,42.805,6.029,CST-1368DR,8688,12151,15472,0.037,551
2019-07-12T11:54:25,42.805,6.029,CST-1368DR,8688,12152,15473,0.037,551
2019-07-12T11:57:26,42.805,6.029,CST-1368DR,8688,12149,15469,0.038,551
2019-07-12T12:00:28,42.805,6.029,CST-1368DR,8688,12152,15473,0.037,551
2019-07-12T12:03:30,42.805,6.029,CST-1368DR,8688,12154,15476,0.036,550
2019-07-12T12:06:31,42.805,6.029,CST-1368DR,8688,12154,15476,0.036,551
2019-07-12T12:09:33,42.805,6.029,CST-1368DR,8688,12153,15474,0.037,551
2019-07-12T12:12:35,42.805,6.029,CST-1368DR,8688,12153,15474,0.037,551
2019-07-12T12:15:36,42.805,6.029,CST-1368DR,8688,12153,15474,0.037,551
2019-07-12T12:18:38,42.805,6.029,CST-1368DR,8688,12148,15468,0.038,550
2019-07-12T12:21:39,42.805,6.029,CST-1368DR,8688,12154,15475,0.036,550
2019-07-12T12:24:41,42.805,6.029,CST-1368DR,8688,12152,15473,0.037,551
2019-07-12T12:27:43,42.805,6.029,CST-1368DR,8688,12147,15466,0.039,551
2019-07-12T12:30:44,42.805,6.029,CST-1368DR,8688,12153,15474,0.037,551
2019-07-12T12:33:46,42.805,6.029,CST-1368DR,8688,12152,15473,0.037,551
2019-07-12T12:36:48,42.805,6.029,CST-1368DR,8688,12149,15469,0.038,551
2019-07-12T12:39:49,42.805,6.029,CST-1368DR,8688,12151,15472,0.037,550
2019-07-12T12:42:51,42.805,6.029,CST-1368DR,8688,12154,15475,0.036,551
2019-07-12T12:45:53,42.805,6.029,CST-1368DR,8688,12150,15471,0.037,551
2019-07-12T12:48:54,42.805,6.029,CST-1368DR,8688,12153,15474,0.037,551
2019-07-12T12:51:56,42.805,6.029,CST-1368DR,8688,12153,15474,0.037,551
2019-07-12T12:54:57,42.805,6.029,CST-1368DR,8688,12154,15475,0.036,551
2019-07-12T12:57:59,42.805,6.029,CST-1368DR,8688,12153,15474,0.037,551
2019-07-12T13:01:01,42.805,6.029,CST-1368DR,8688,12148,15468,0.038,550
2019-07-12T13:04:03,42.805,6.029,CST-1368DR,8688,12153,15474,0.037,551
2019-07-12T13:07:04,42.805,6.029,CST-1368DR,8688,12152,15473,0.037,551
2019-07-12T13:10:06,42.805,6.029,CST-1368DR,8688,12154,15475,0.036,551
2019-07-12T13:13:08,42.805,6.029,CST-1368DR,8688,12152,15473,0.037,551
2019-07-12T13:16:09,42.805,6.029,CST-1368DR,8688,12152,15473,0.037,551
2019-07-12T13:19:11,42.805,6.029,CST-1368DR,8688,12151,15472,0.037,551
2019-07-12T13:22:12,42.805,6.029,CST-1368DR,8688,12151,15472,0.037,551
2019-07-12T13:25:14,42.805,6.029,CST-1368DR,8688,12152,15473,0.037,551
2019-07-12T13:28:16,42.805,6.029,CST-1368DR,8688,12152,15473,0.037,551
2019-07-12T13:31:17,42.805,6.029,CST-1368DR,8688,12145,15464,0.039,551
2019-07-12T13:34:19,42.805,6.029,CST-1368DR,8688,12150,15471,0.037,550
2019-07-12T13:37:21,42.805,6.029,CST-1368DR,8688,12150,15471,0.037,550
2019-07-12T13:40:22,42.805,6.029,CST-1368DR,8687,12147,15469,0.038,551
2019-07-12T13:43:24,42.805,6.029,CST-1368DR,8687,12151,15474,0.037,551
2019-07-12T13:46:26,42.805,6.029,CST-1368DR,8687,12151,15473,0.037,551
2019-07-12T13:49:27,42.805,6.029,CST-1368DR,8687,12151,15474,0.037,551
2019-07-12T13:52:29,42.805,6.029,CST-1368DR,8687,12148,15469,0.038,551
2019-07-12T13:55:30,42.805,6.029,CST-1368DR,8687,12151,15473,0.037,551
2019-07-12T13:58:32,42.805,6.029,CST-1368DR,8687,12149,15470,0.038,551
2019-07-12T14:01:34,42.805,6.029,CST-1368DR,8687,12152,15475,0.036,551
2019-07-12T14:04:36,42.805,6.029,CST-1368DR,8687,12151,15474,0.037,550
2019-07-12T14:07:37,42.805,6.029,CST-1368DR,8687,12149,15471,0.037,551
2019-07-12T14:10:39,42.805,6.029,CST-1368DR,8687,12153,15476,0.036,551
2019-07-12T14:13:41,42.805,6.029,CST-1368DR,8687,12151,15474,0.037,551
2019-07-12T14:16:42,42.805,6.029,CST-1368DR,8687,12145,15465,0.039,551
2019-07-12T14:19:44,42.805,6.029,CST-1368DR,8687,12152,15475,0.036,551
2019-07-12T14:22:46,42.805,6.029,CST-1368DR,8687,12151,15473,0.037,550
2019-07-12T14:25:47,42.805,6.029,CST-1368DR,8687,12151,15473,0.037,550
2019-07-12T14:28:49,42.805,6.029,CST-1368DR,8687,12151,15474,0.037,551
2019-07-12T14:31:50,42.805,6.029,CST-1368DR,8687,12152,15474,0.037,551
2019-07-12T14:34:52,42.805,6.029,CST-1368DR,8687,12151,15473,0.037,550
2019-07-12T14:37:54,42.805,6.029,CST-1368DR,8687,12151,15474,0.037,551
2019-07-12T14:40:55,42.805,6.029,CST-1368DR,8687,12150,15473,0.037,551
2019-07-12T14:43:57,42.805,6.029,CST-1368DR,8687,12150,15472,0.037,550
2019-07-12T14:46:59,42.805,6.029,CST-1368DR,8687,12137,15455,0.041,551
2019-07-12T14:50:00,42.805,6.029,CST-1368DR,8687,12149,15471,0.037,550
2019-07-12T14:53:02,42.805,6.029,CST-1368DR,8687,12150,15472,0.037,551
2019-07-12T14:56:04,42.805,6.029,CST-1368DR,8687,12151,15473,0.037,551
2019-07-12T14:59:05,42.805,6.029,CST-1368DR,8687,12150,15472,0.037,551
2019-07-12T15:02:07,42.805,6.029,CST-1368DR,8687,12149,15471,0.037,551
2019-07-12T15:05:09,42.805,6.029,CST-1368DR,8687,12150,15472,0.037,550
2019-07-12T15:08:10,42.805,6.029,CST-1368DR,8687,12150,15472,0.037,551
2019-07-12T15:11:12,42.805,6.029,CST-1368DR,8687,12146,15467,0.038,551
2019-07-12T15:14:14,42.805,6.029,CST-1368DR,8687,12152,15474,0.037,551
2019-07-12T15:17:15,42.805,6.029,CST-1368DR,8687,12151,15473,0.037,551
2019-07-12T15:20:17,42.805,6.029,CST-1368DR,8687,12151,15474,0.037,551
2019-07-12T15:23:19,42.805,6.029,CST-1368DR,8687,12145,15466,0.039,551
2019-07-12T15:26:20,42.805,6.029,CST-1368DR,8687,12148,15470,0.038,551
2019-07-12T15:29:22,42.805,6.029,CST-1368DR,8687,12151,15474,0.037,551
2019-07-12T15:32:23,42.805,6.029,CST-1368DR,8687,12152,15474,0.037,551
2019-07-12T15:35:25,42.805,6.029,CST-1368DR,8686,12151,15475,0.036,551
2019-07-12T15:38:27,42.805,6.029,CST-1368DR,8686,12145,15468,0.038,551
2019-07-12T15:41:28,42.805,6.029,CST-1368DR,8686,12150,15473,0.037,551
2019-07-12T15:44:30,42.805,6.029,CST-1368DR,8686,12150,15474,0.037,551
2019-07-12T15:47:32,42.805,6.029,CST-1368DR,8686,12150,15474,0.037,551
2019-07-12T15:50:33,42.805,6.029,CST-1368DR,8686,12150,15474,0.037,551
2019-07-12T15:53:35,42.805,6.029,CST-1368DR,8686,12149,15472,0.037,551
2019-07-12T15:56:37,42.805,6.029,CST-1368DR,8686,12150,15474,0.037,551
2019-07-12T15:59:38,42.805,6.029,CST-1368DR,8686,12149,15472,0.037,550
2019-07-12T16:02:40,42.805,6.029,CST-1368DR,8686,12147,15470,0.038,551
2019-07-12T16:05:42,42.805,6.029,CST-1368DR,8686,12151,15475,0.036,551
2019-07-12T16:08:43,42.805,6.029,CST-1368DR,8686,12148,15471,0.037,551
2019-07-12T16:11:45,42.805,6.029,CST-1368DR,8686,12149,15472,0.037,551
2019-07-12T16:14:46,42.805,6.029,CST-1368DR,8686,12148,15471,0.037,551
2019-07-12T16:17:48,42.805,6.029,CST-1368DR,8686,12147,15470,0.038,551
2019-07-12T16:20:50,42.805,6.029,CST-1368DR,8686,12149,15472,0.037,551
2019-07-12T16:23:51,42.805,6.029,CST-1368DR,8686,12145,15467,0.038,551
2019-07-12T16:26:53,42.805,6.029,CST-1368DR,8686,12149,15472,0.037,551
2019-07-12T16:29:55,42.805,6.029,CST-1368DR,8686,12149,15472,0.037,551
2019-07-12T16:32:56,42.805,6.029,CST-1368DR,8686,12137,15457,0.041,551
2019-07-12T16:35:58,42.805,6.029,CST-1368DR,8686,12146,15469,0.038,551
2019-07-12T16:38:59,42.805,6.029,CST-1368DR,8686,12147,15470,0.038,551
2019-07-12T16:42:01,42.805,6.029,CST-1368DR,8686,12147,15470,0.038,551
2019-07-12T16:45:03,42.805,6.029,CST-1368DR,8686,12148,15471,0.037,551
2019-07-12T16:48:05,42.805,6.029,CST-1368DR,8686,12146,15469,0.038,550
2019-07-12T16:51:06,42.805,6.029,CST-1368DR,8686,12147,15470,0.038,551
2019-07-12T16:54:08,42.805,6.029,CST-1368DR,8686,12148,15471,0.037,551
2019-07-12T16:57:09,42.805,6.029,CST-1368DR,8686,12148,15471,0.037,551
2019-07-12T17:00:11,42.805,6.029,CST-1368DR,8686,12148,15471,0.037,551
2019-07-12T17:03:13,42.805,6.029,CST-1368DR,8686,12146,15468,0.038,551
2019-07-12T17:06:14,42.805,6.029,CST-1368DR,8686,12146,15469,0.038,551
2019-07-12T17:09:16,42.805,6.029,CST-1368DR,8686,12146,15468,0.038,551
2019-07-12T17:12:18,42.805,6.029,CST-1368DR,8686,12147,15469,0.038,551
2019-07-12T17:15:19,42.805,6.029,CST-1368DR,8685,12149,15474,0.037,551
2019-07-12T17:18:21,42.805,6.029,CST-1368DR,8686,12147,15469,0.038,551
2019-07-12T17:21:23,42.805,6.029,CST-1368DR,8685,12146,15471,0.037,551
2019-07-12T17:24:24,42.805,6.029,CST-1368DR,8685,12148,15473,0.037,551
2019-07-12T17:27:26,42.805,6.029,CST-1368DR,8685,12148,15472,0.037,551
2019-07-12T17:30:28,42.805,6.029,CST-1368DR,8686,12147,15470,0.038,551
2019-07-12T17:33:29,42.805,6.029,CST-1368DR,8686,12145,15467,0.038,551
2019-07-12T17:36:31,42.805,6.029,CST-1368DR,8685,12141,15464,0.039,551
2019-07-12T17:39:33,42.805,6.029,CST-1368DR,8685,12147,15471,0.037,551
2019-07-12T17:42:34,42.805,6.029,CST-1368DR,8685,12144,15468,0.038,551
2019-07-12T17:45:36,42.805,6.029,CST-1368DR,8685,12148,15473,0.037,551
2019-07-12T17:48:38,42.805,6.029,CST-1368DR,8685,12146,15471,0.037,551
2019-07-12T17:51:39,42.805,6.029,CST-1368DR,8685,12146,15471,0.037,551
2019-07-12T17:54:41,42.805,6.029,CST-1368DR,8685,12139,15462,0.040,551
2019-07-12T17:57:42,42.805,6.029,CST-1368DR,8685,12145,15469,0.038,550
2019-07-12T18:00:44,42.805,6.029,CST-1368DR,8685,12147,15472,0.037,551
2019-07-12T18:03:46,42.805,6.029,CST-1368DR,8685,12147,15471,0.037,551
2019-07-12T18:06:47,42.805,6.029,CST-1368DR,8685,12146,15471,0.037,551
2019-07-12T18:09:49,42.805,6.029,CST-1368DR,8685,12145,15469,0.038,551
2019-07-12T18:12:51,42.805,6.029,CST-1368DR,8685,12142,15466,0.039,551
2019-07-12T18:15:52,42.805,6.029,CST-1368DR,8685,12147,15471,0.037,551
2019-07-12T18:18:54,42.805,6.029,CST-1368DR,8685,12145,15469,0.038,551
2019-07-12T18:21:55,42.805,6.029,CST-1368DR,8685,12145,15469,0.038,551
2019-07-12T18:24:57,42.805,6.029,CST-1368DR,8685,12145,15469,0.038,551
2019-07-12T18:27:59,42.805,6.029,CST-1368DR,8685,12147,15471,0.037,551
2019-07-12T18:31:01,42.805,6.029,CST-1368DR,8685,12147,15472,0.037,550
2019-07-12T18:34:03,42.805,6.029,CST-1368DR,8685,12146,15471,0.037,551
2019-07-12T18:37:04,42.805,6.029,CST-1368DR,8685,12145,15469,0.038,551
2019-07-12T18:40:06,42.805,6.029,CST-1368DR,8685,12145,15469,0.038,551
2019-07-12T18:43:08,42.805,6.029,CST-1368DR,8685,12146,15470,0.038,551
2019-07-12T18:46:10,42.805,6.029,CST-1368DR,8685,12146,15471,0.037,551
2019-07-12T18:49:11,42.805,6.029,CST-1368DR,8685,12147,15472,0.037,551
2019-07-12T18:52:13,42.805,6.029,CST-1368DR,8685,12146,15471,0.037,551
2019-07-12T18:55:15,42.805,6.029,CST-1368DR,8685,12147,15472,0.037,551
2019-07-12T18:58:17,42.805,6.029,CST-1368DR,8685,12146,15470,0.038,551
2019-07-12T19:01:19,42.805,6.029,CST-1368DR,8685,12144,15468,0.038,550
2019-07-12T19:04:20,42.805,6.029,CST-1368DR,8685,12144,15468,0.038,551
2019-07-12T19:07:22,42.805,6.029,CST-1368DR,8685,12146,15471,0.037,551
2019-07-12T19:10:24,42.805,6.029,CST-1368DR,8685,12145,15469,0.038,551
2019-07-12T19:13:26,42.805,6.029,CST-1368DR,8685,12145,15469,0.038,551
2019-07-12T19:16:28,42.805,6.029,CST-1368DR,8685,12146,15470,0.038,551
2019-07-12T19:19:29,42.805,6.029,CST-1368DR,8685,12148,15472,0.037,550
2019-07-12T19:22:31,42.805,6.029,CST-1368DR,8685,12148,15472,0.037,551
2019-07-12T19:25:33,42.805,6.029,CST-1368DR,8684,12146,15471,0.037,551
2019-07-12T19:28:35,42.805,6.029,CST-1368DR,8684,12144,15469,0.038,551
2019-07-12T19:31:37,42.805,6.029,CST-1368DR,8685,12146,15470,0.038,551
2019-07-12T19:34:38,42.805,6.029,CST-1368DR,8684,12146,15472,0.037,551
2019-07-12T19:37:40,42.805,6.029,CST-1368DR,8684,12147,15473,0.037,551
2019-07-12T19:40:42,42.805,6.029,CST-1368DR,8684,12146,15471,0.037,551
2019-07-12T19:43:44,42.805,6.029,CST-1368DR,8684,12145,15471,0.037,551
2019-07-12T19:46:46,42.805,6.029,CST-1368DR,8684,12147,15473,0.037,550
2019-07-12T19:49:47,42.805,6.029,CST-1368DR,8684,12147,15473,0.037,551
2019-07-12T19:52:49,42.805,6.029,CST-1368DR,8684,12145,15470,0.038,551
2019-07-12T19:55:51,42.805,6.029,CST-1368DR,8684,12141,15466,0.039,551
2019-07-12T19:58:53,42.805,6.029,CST-1368DR,8684,12147,15473,0.037,551
2019-07-12T20:01:54,42.805,6.029,CST-1368DR,8684,12147,15473,0.037,551
2019-07-12T20:04:56,42.805,6.029,CST-1368DR,8684,12147,15473,0.037,551
2019-07-12T20:07:58,42.805,6.029,CST-1368DR,8684,12145,15471,0.037,551
2019-07-12T20:11:00,42.805,6.029,CST-1368DR,8684,12147,15473,0.037,551
2019-07-12T20:14:01,42.805,6.029,CST-1368DR,8684,12147,15473,0.037,550
2019-07-12T20:17:03,42.805,6.029,CST-1368DR,8684,12145,15471,0.037,551
2019-07-12T20:20:05,42.805,6.029,CST-1368DR,8684,12147,15473,0.037,551
2019-07-12T20:23:07,42.805,6.029,CST-1368DR,8684,12145,15470,0.038,551
2019-07-12T20:26:09,42.805,6.029,CST-1368DR,8684,12146,15472,0.037,551
2019-07-12T20:29:10,42.805,6.029,CST-1368DR,8684,12144,15469,0.038,551
2019-07-12T20:32:12,42.805,6.029,CST-1368DR,8684,12147,15473,0.037,551
2019-07-12T20:35:14,42.805,6.029,CST-1368DR,8684,12146,15472,0.037,551
2019-07-12T20:38:16,42.805,6.029,CST-1368DR,8684,12138,15462,0.040,551
2019-07-12T20:41:18,42.805,6.029,CST-1368DR,8684,12147,15473,0.037,550
2019-07-12T20:44:20,42.805,6.029,CST-1368DR,8684,12147,15473,0.037,551
2019-07-12T20:47:22,42.805,6.029,CST-1368DR,8683,12145,15472,0.037,550
2019-07-12T20:50:23,42.805,6.029,CST-1368DR,8683,12144,15471,0.037,551
2019-07-12T20:53:25,42.805,6.029,CST-1368DR,8684,12145,15471,0.037,551
2019-07-12T20:56:27,42.805,6.029,CST-1368DR,8684,12147,15473,0.037,551
2019-07-12T20:59:29,42.805,6.029,CST-1368DR,8684,12145,15470,0.038,551
2019-07-12T21:02:30,42.805,6.029,CST-1368DR,8683,12145,15472,0.037,551
2019-07-12T21:05:32,42.805,6.029,CST-1368DR,8683,12143,15470,0.038,551
2019-07-12T21:08:34,42.805,6.029,CST-1368DR,8683,12143,15470,0.038,551
2019-07-12T21:11:36,42.805,6.029,CST-1368DR,8683,12144,15471,0.037,550
2019-07-12T21:14:38,42.805,6.029,CST-1368DR,8683,12145,15473,0.037,550
2019-07-12T21:17:40,42.805,6.029,CST-1368DR,8683,12145,15473,0.037,551
2019-07-12T21:20:42,42.805,6.029,CST-1368DR,8683,12145,15472,0.037,551
2019-07-12T21:23:43,42.805,6.029,CST-1368DR,8683,12144,15471,0.037,551
2019-07-12T21:26:45,42.805,6.029,CST-1368DR,8683,12145,15473,0.037,551
2019-07-12T21:29:47,42.805,6.029,CST-1368DR,8683,12144,15471,0.037,551
2019-07-12T21:32:49,42.805,6.029,CST-1368DR,8683,12143,15470,0.038,551
2019-07-12T21:35:51,42.805,6.029,CST-1368DR,8683,12145,15472,0.037,551
2019-07-12T21:38:53,42.805,6.029,CST-1368DR,8683,12141,15468,0.038,551
2019-07-12T21:41:54,42.805,6.029,CST-1368DR,8683,12139,15465,0.039,551
2019-07-12T21:44:56,42.805,6.029,CST-1368DR,8683,12145,15473,0.037,551
2019-07-12T21:47:58,42.805,6.029,CST-1368DR,8683,12145,15473,0.037,551
2019-07-12T21:51:00,42.805,6.029,CST-1368DR,8683,12143,15470,0.038,550
2019-07-12T21:54:02,42.805,6.029,CST-1368DR,8683,12143,15470,0.038,550
2019-07-12T21:57:03,42.805,6.029,CST-1368DR,8683,12143,15470,0.038,551
2019-07-12T22:00:05,42.805,6.029,CST-1368DR,8683,12140,15465,0.039,551
2019-07-12T22:03:07,42.805,6.029,CST-1368DR,8683,12144,15471,0.037,550
2019-07-12T22:06:09,42.805,6.029,CST-1368DR,8683,12144,15471,0.037,550
2019-07-12T22:09:10,42.805,6.029,CST-1368DR,8683,12144,15471,0.037,551
2019-07-12T22:12:12,42.805,6.029,CST-1368DR,8683,12142,15468,0.038,551
2019-07-12T22:15:14,42.805,6.029,CST-1368DR,8683,12145,15472,0.037,551
2019-07-12T22:18:16,42.805,6.029,CST-1368DR,8683,12144,15471,0.037,551
2019-07-12T22:21:17,42.805,6.029,CST-1368DR,8683,12141,15467,0.038,551
2019-07-12T22:24:19,42.805,6.029,CST-1368DR,8683,12139,15464,0.039,551
2019-07-12T22:27:21,42.805,6.029,CST-1368DR,8683,12143,15470,0.038,551
2019-07-12T22:30:23,42.805,6.029,CST-1368DR,8683,12142,15469,0.038,551
2019-07-12T22:33:25,42.805,6.029,CST-1368DR,8682,12138,15465,0.039,551
2019-07-12T22:36:26,42.805,6.029,CST-1368DR,8683,12142,15468,0.038,551
2019-07-12T22:39:28,42.805,6.029,CST-1368DR,8683,12142,15468,0.038,551
2019-07-12T22:42:30,42.805,6.029,CST-1368DR,8683,12142,15469,0.038,551
2019-07-12T22:45:32,42.805,6.029,CST-1368DR,8682,12143,15472,0.037,550
2019-07-12T22:48:34,42.805,6.029,CST-1368DR,8682,12141,15469,0.038,551
2019-07-12T22:51:35,42.805,6.029,CST-1368DR,8682,12138,15465,0.039,551
2019-07-12T22:54:37,42.805,6.029,CST-1368DR,8682,12129,15453,0.042,551
2019-07-12T22:57:39,42.805,6.029,CST-1368DR,8682,12142,15470,0.038,551
2019-07-12T23:00:41,42.805,6.029,CST-1368DR,8682,12143,15471,0.037,551
2019-07-12T23:03:43,42.805,6.029,CST-1368DR,8682,12142,15470,0.038,551
2019-07-12T23:06:44,42.805,6.029,CST-1368DR,8682,12141,15469,0.038,551
2019-07-12T23:09:46,42.805,6.029,CST-1368DR,8682,12143,15472,0.037,550
2019-07-12T23:12:48,42.805,6.029,CST-1368DR,8682,12140,15467,0.038,550
2019-07-12T23:15:50,42.805,6.029,CST-1368DR,8682,12140,15468,0.038,551
2019-07-12T23:18:51,42.805,6.029,CST-1368DR,8682,12142,15471,0.037,551
2019-07-12T23:21:53,42.805,6.029,CST-1368DR,8682,12143,15472,0.037,551
2019-07-12T23:24:55,42.805,6.029,CST-1368DR,8682,12136,15463,0.039,551
2019-07-12T23:27:57,42.805,6.029,CST-1368DR,8682,12141,15469,0.038,551
2019-07-12T23:30:59,42.805,6.029,CST-1368DR,8682,12142,15470,0.038,551
2019-07-12T23:34:00,42.805,6.029,CST-1368DR,8682,12140,15467,0.038,551
2019-07-12T23:37:02,42.805,6.029,CST-1368DR,8682,12139,15466,0.039,551
2019-07-12T23:40:04,42.805,6.029,CST-1368DR,8682,12142,15471,0.037,551
2019-07-12T23:43:06,42.805,6.029,CST-1368DR,8682,12142,15470,0.038,551
2019-07-12T23:46:07,42.805,6.029,CST-1368DR,8682,12141,15469,0.038,550
2019-07-12T23:49:09,42.805,6.029,CST-1368DR,8682,12142,15470,0.038,551
2019-07-12T23:52:11,42.805,6.029,CST-1368DR,8682,12142,15471,0.037,551
2019-07-12T23:55:12,42.805,6.029,CST-1368DR,8682,12144,15472,0.037,550
2019-07-12T23:58:14,42.805,6.029,CST-1368DR,8682,12142,15471,0.037,551
